Portland, OR

11:53 AM PDT on April 27, 2017 (GMT -0700)
Portland International

Weather History for KPDX - November, 2012

Change the Weather History Date:

Monday, November 5, 2012

  Actual Average Record
Temperature  
Mean Temperature 59 °F 49 °F  
Max Temperature 64 °F 56 °F 68 °F (1987)
Min Temperature 53 °F 43 °F 28 °F (1971)
Degree Days  
Heating Degree Days 6 16  
Month to date heating degree days 31 76  
Since 1 July heating degree days 359 494  
Cooling Degree Days 0 0  
Month to date cooling degree days 0 0  
Year to date cooling degree days 436 424  
Growing Degree Days 8 (Base 50)    
Moisture  
Dew Point 53 °F    
Average Humidity 81    
Maximum Humidity 97    
Minimum Humidity 64    
Precipitation  
Precipitation 0.04 in 0.17 in 1.12 in (2006)
Month to date precipitation 0.64 0.79  
Year to date precipitation 35.29 25.70  
Snow  
Snow 0.00 in - - ()
Month to date snowfall 0.0  
Snow Depth 0.00 in    
Sea Level Pressure  
Sea Level Pressure 30.29 in    
Wind  
Wind Speed 5 mph (WNW)    
Max Wind Speed 12 mph    
Max Gust Speed 14 mph    
Visibility 9 miles    
Events Rain    
T = Trace of Precipitation, MM = Missing Value Source: NWS Daily Summary

Daily Weather History Graph

Daily Weather History Graph

Search for Another Location

Airport or City:

Trip Planner

Search our weather history database for the weather conditions in past years. The results will help you decide how hot, cold, wet, or windy it might be!

Date:

Astronomy

Nov. 05, 2012 Rise Set
Actual Time 6:56 AM PST 4:50 PM PST
Civil Twilight 6:25 AM PST 5:22 PM PST
Nautical Twilight 5:49 AM PST 5:57 PM PST
Astronomical Twilight 5:15 AM PST 6:32 PM PST
Moon 10:34 PM PST (11/5) 12:19 PM PST (11/5)
Length of Visible Light 10h 57m
Length of Day
9h 54m
Waning Gibbous, 62% of the Moon is Illuminated
Nov 5
Waning Gibbous
Nov 6
Last Quarter
Nov 13
New
Nov 20
First Quarter
Nov 28
Full

Hourly Weather History & Observations

Time (PST) Temp. Dew Point Humidity Pressure Visibility Wind Dir Wind Speed Gust Speed Precip Events Conditions
12:53 AM 60.1 °F 57.9 °F 93% 30.32 in 10.0 mi ESE 9.2 mph - N/A   Mostly Cloudy
1:53 AM 61.0 °F 57.9 °F 90% 30.32 in 10.0 mi Calm Calm - N/A   Overcast
2:25 AM 60.8 °F 57.2 °F 88% 30.33 in 10.0 mi Calm Calm - N/A   Overcast
2:53 AM 62.1 °F 57.9 °F 86% 30.32 in 9.0 mi SE 3.5 mph - 0.00 in Rain Light Rain
3:53 AM 60.1 °F 59.0 °F 96% 30.33 in 4.0 mi Calm Calm - 0.02 in Rain Light Rain
4:09 AM 60.8 °F 59.0 °F 94% 30.33 in 5.0 mi Calm Calm - 0.01 in   Overcast
4:22 AM 60.8 °F 59.0 °F 94% 30.33 in 6.0 mi Calm Calm - 0.01 in   Overcast
4:34 AM 60.8 °F 59.0 °F 94% 30.34 in 2.0 mi WNW 4.6 mph - 0.01 in   Overcast
4:43 AM 59.0 °F 59.0 °F 100% 30.34 in 2.0 mi WNW 3.5 mph - 0.01 in   Overcast
4:53 AM 59.0 °F 59.0 °F 100% 30.34 in 2.0 mi WNW 3.5 mph - 0.01 in   Light Drizzle
5:22 AM 57.2 °F 55.4 °F 94% 30.34 in 4.0 mi NNW 5.8 mph - 0.01 in   Light Drizzle
5:37 AM 57.2 °F 55.4 °F 94% 30.35 in 10.0 mi NW 8.1 mph - 0.01 in   Light Drizzle
5:43 AM 57.2 °F 55.4 °F 94% 30.35 in 10.0 mi NW 8.1 mph - 0.01 in   Overcast
5:53 AM 57.9 °F 55.0 °F 90% 30.35 in 10.0 mi NW 5.8 mph - 0.01 in   Overcast
6:53 AM 57.9 °F 54.0 °F 87% 30.35 in 10.0 mi NW 8.1 mph - N/A   Overcast
7:38 AM 57.2 °F 53.6 °F 88% 30.35 in 10.0 mi NW 8.1 mph - N/A   Overcast
7:53 AM 57.0 °F 54.0 °F 89% 30.36 in 10.0 mi WNW 8.1 mph - 0.00 in   Light Drizzle
8:14 AM 57.2 °F 53.6 °F 88% 30.36 in 10.0 mi WNW 6.9 mph - 0.00 in   Overcast
8:45 AM 57.2 °F 53.6 °F 88% 30.35 in 10.0 mi NW 4.6 mph - 0.00 in   Mostly Cloudy
8:53 AM 57.9 °F 54.0 °F 87% 30.35 in 10.0 mi NW 5.8 mph - 0.00 in   Mostly Cloudy
9:53 AM 59.0 °F 52.0 °F 78% 30.35 in 10.0 mi WNW 9.2 mph - N/A   Overcast
10:53 AM 60.1 °F 51.1 °F 72% 30.34 in 10.0 mi NW 4.6 mph - N/A   Mostly Cloudy
11:53 AM 60.1 °F 48.9 °F 67% 30.32 in 10.0 mi WNW 9.2 mph - N/A   Overcast
12:53 PM 62.1 °F 51.1 °F 67% 30.31 in 10.0 mi NNW 4.6 mph - N/A   Mostly Cloudy
1:53 PM 63.0 °F 50.0 °F 63% 30.28 in 10.0 mi West 8.1 mph - N/A   Mostly Cloudy
2:53 PM 63.0 °F 50.0 °F 63% 30.27 in 10.0 mi WNW 8.1 mph - N/A   Mostly Cloudy
3:53 PM 62.1 °F 50.0 °F 65% 30.25 in 10.0 mi West 6.9 mph - N/A   Mostly Cloudy
4:53 PM 60.1 °F 50.0 °F 69% 30.24 in 10.0 mi WNW 5.8 mph - N/A   Mostly Cloudy
5:49 PM 59.0 °F 51.1 °F 75% 30.22 in 10.0 mi WNW 3.5 mph - N/A   Mostly Cloudy
5:53 PM 59.0 °F 51.1 °F 75% 30.22 in 10.0 mi WNW 3.5 mph - N/A   Mostly Cloudy
6:53 PM 55.9 °F 50.0 °F 80% 30.22 in 10.0 mi West 3.5 mph - N/A   Mostly Cloudy
7:53 PM 53.1 °F 48.9 °F 86% 30.21 in 10.0 mi West 5.8 mph - N/A   Mostly Cloudy
8:49 PM 53.6 °F 50.0 °F 88% 30.20 in 10.0 mi Calm Calm - N/A   Overcast
8:53 PM 54.0 °F 50.0 °F 86% 30.19 in 10.0 mi West 3.5 mph - N/A   Overcast
9:53 PM 55.0 °F 51.1 °F 86% 30.17 in 10.0 mi Calm Calm - N/A   Overcast
10:08 PM 55.4 °F 51.8 °F 88% 30.17 in 10.0 mi Calm Calm - N/A   Overcast
10:34 PM 55.4 °F 50.0 °F 82% 30.16 in 10.0 mi NW 4.6 mph - N/A   Overcast
10:53 PM 55.0 °F 50.0 °F 83% 30.16 in 10.0 mi NW 4.6 mph - N/A   Overcast
11:53 PM 54.0 °F 51.1 °F 90% 30.14 in 9.0 mi NW 3.5 mph - N/A   Overcast